7 * 24
多渠道服务支持
STARLINK-33595 是 SpaceX Starlink 卫星互联网项目中的一颗低轨卫星,属于第三代星链卫星(v1.5)。该卫星于2023年发射,旨在为全球用户提供高速、低延迟的宽带互联网服务。它运行在约550公里高的近地轨道,配备先进通信设备和激光链路,以提升网络稳定性和数据传输效率。作为 Starlink 网络的重要组成部分,该卫星支持偏远地区的互联网接入,并增强整体星座的冗余与覆盖能力。
美国
(US)
| 数据来源 | 国际轨道数据 |
| 星历时间: | 2025-11-06T06:03:14+0800 2天前 查看轨道信息 |
| 半长轴: | 6853.329km |
| 偏心率: | 0.0001214 |
| 轨道倾角: | 53.158° |
| 近地点辐角 | 82.907° |
| 升交点赤经 | 177.192° |
| 平近点角 | 277.207° |
| 近地点: | 474.362km |
| 远地点: | 476.026km |
| 周期: | 94.105分钟 |
| 每日圈数: | 15.30208 |